Terug naar catalogus

OPS 7684

ActiefWeerPO
NORAD 3605·PAYLOAD·🇺🇸 United States

Gelanceerd Dec 12, 1968 vanaf Vandenberg Space Force Base

Loading…

Volgende Passages (komende 24 uur)

TLE

VersSource: Space-Track

Epoch: Sep 14, 2026, 09:17 UTC

1 03605U 68112B   26257.38736219  .00000082  00000-0  43009-3 0  9992
2 03605  80.3615  41.4819 0055903 296.2431  91.3143 12.60758816655242

Volg OPS 7684 in realtime met AllMySat

Download on the App Store